Manitowoc, WI

8:31 PM CDT on April 26, 2017 (GMT -0500)
Manitowoc County

Weather History for KMTW - September, 2013

Change the Weather History Date:

Friday, September 27, 2013

  Actual Average Record
Temperature  
Mean Temperature 58 °F -  
Max Temperature 71 °F 66 °F 84 °F (1987)
Min Temperature 44 °F 47 °F 31 °F (1991)
Degree Days  
Heating Degree Days 8    
Growing Degree Days 8 (Base 50)    
Moisture  
Dew Point 50 °F    
Average Humidity 92    
Maximum Humidity 100    
Minimum Humidity 61    
Precipitation  
Precipitation 0.01 in - - ()
Sea Level Pressure  
Sea Level Pressure 30.17 in    
Wind  
Wind Speed 2 mph (South)    
Max Wind Speed 15 mph    
Max Gust Speed 22 mph    
Visibility 4 miles    
Events Fog    
Averages and records for this station are not official NWS values.
T = Trace of Precipitation, MM = Missing Value Source: NWS Daily Summary

Daily Weather History Graph

Daily Weather History Graph

Search for Another Location

Airport or City:

Trip Planner

Search our weather history database for the weather conditions in past years. The results will help you decide how hot, cold, wet, or windy it might be!

Date:

Astronomy

Sep. 27, 2013 Rise Set
Actual Time 6:44 AM CDT 6:38 PM CDT
Civil Twilight 6:15 AM CDT 7:07 PM CDT
Nautical Twilight 5:41 AM CDT 7:40 PM CDT
Astronomical Twilight 5:07 AM CDT 8:14 PM CDT
Moon No Moon Rise 2:27 PM CDT
Length of Visible Light 12h 51m
Length of Day
11h 54m
Last Quarter, 45% of the Moon is Illuminated
Sep 27
Last Quarter
Oct 4
New
Oct 11
First Quarter
Oct 18
Full
Oct 26
Last Quarter

Hourly Weather History & Observations

Time (CDT) Temp. Dew Point Humidity Pressure Visibility Wind Dir Wind Speed Gust Speed Precip Events Conditions
12:16 AM 48.2 °F 46.4 °F 93% 30.12 in 0.2 mi WNW 3.5 mph - N/A Fog Fog
12:56 AM 48.0 °F 46.9 °F 96% 30.19 in 0.2 mi Calm Calm - N/A Fog Fog
1:56 AM 46.0 °F 46.0 °F 100% 30.20 in 0.2 mi Calm Calm - N/A Fog Fog
2:56 AM 46.0 °F 45.0 °F 96% 30.20 in 0.2 mi Calm Calm - 0.01 in Fog Fog
3:56 AM 45.0 °F 44.1 °F 97% 30.21 in 0.5 mi Calm Calm - N/A Fog Fog
4:06 AM 44.6 °F 44.6 °F 100% 30.14 in 1.0 mi Calm Calm - N/A   Overcast
4:13 AM 44.6 °F 44.6 °F 100% 30.14 in 0.5 mi Calm Calm - N/A Fog Fog
4:27 AM 44.6 °F 44.6 °F 100% 30.14 in 0.2 mi Calm Calm - N/A Fog Fog
4:56 AM 45.0 °F 44.1 °F 97% 30.22 in 0.2 mi Calm Calm - N/A Fog Fog
5:11 AM 44.6 °F 44.6 °F 100% 30.14 in 0.8 mi Calm Calm - N/A   Mostly Cloudy
5:16 AM 44.6 °F 44.6 °F 100% 30.14 in 1.0 mi Calm Calm - N/A   Mist
5:20 AM 44.6 °F 44.6 °F 100% 30.15 in 2.0 mi Calm Calm - N/A   Scattered Clouds
5:25 AM 44.6 °F 44.6 °F 100% 30.15 in 3.0 mi Calm Calm - N/A   Mostly Cloudy
5:56 AM 44.1 °F 44.1 °F 100% 30.23 in 4.0 mi Calm Calm - N/A   Partly Cloudy
6:24 AM 44.6 °F 42.8 °F 93% 30.16 in 2.5 mi Calm Calm - N/A   Mostly Cloudy
6:28 AM 44.6 °F 42.8 °F 93% 30.16 in 1.0 mi Calm Calm - N/A   Mostly Cloudy
6:32 AM 44.6 °F 42.8 °F 93% 30.16 in 0.5 mi Calm Calm - N/A Fog Fog
6:42 AM 44.6 °F 42.8 °F 93% 30.16 in 0.2 mi Calm Calm - N/A Fog Fog
6:56 AM 44.1 °F 43.0 °F 96% 30.25 in 0.2 mi Calm Calm - N/A Fog Fog
7:12 AM 44.6 °F 44.6 °F 100% 30.17 in 0.8 mi Calm Calm - N/A   Overcast
7:15 AM 44.6 °F 44.6 °F 100% 30.17 in 2.5 mi Calm Calm - N/A   Overcast
7:28 AM 44.6 °F 44.6 °F 100% 30.17 in 1.0 mi Calm Calm - N/A   Overcast
7:31 AM 44.6 °F 44.6 °F 100% 30.17 in 0.5 mi Calm Calm - N/A Fog Fog
7:43 AM 46.4 °F 46.4 °F 100% 30.17 in 0.2 mi Calm Calm - N/A Fog Fog
7:56 AM 48.0 °F 46.9 °F 96% 30.25 in 0.2 mi Calm Calm - N/A Fog Fog
8:03 AM 48.2 °F 48.2 °F 100% 30.17 in 0.8 mi Calm Calm - N/A   Overcast
8:05 AM 50.0 °F 48.2 °F 94% 30.17 in 1.5 mi Calm Calm - N/A   Overcast
8:21 AM 53.6 °F 53.6 °F 100% 30.17 in 3.0 mi Calm Calm - N/A   Scattered Clouds
8:56 AM 63.0 °F 60.1 °F 90% 30.24 in 10.0 mi SSE 6.9 mph - N/A   Clear
9:56 AM 66.0 °F 60.1 °F 81% 30.25 in 10.0 mi South 13.8 mph - N/A   Clear
10:56 AM 69.1 °F 57.9 °F 68% 30.24 in 10.0 mi South 13.8 mph - N/A   Clear
11:56 AM 70.0 °F 57.0 °F 63% 30.24 in 10.0 mi South 13.8 mph - N/A   Clear
12:56 PM 70.0 °F 57.0 °F 63% 30.23 in 10.0 mi South 15.0 mph - N/A   Clear
1:56 PM 70.0 °F 57.0 °F 63% 30.21 in 10.0 mi South 11.5 mph 19.6 mph N/A   Clear
2:56 PM 71.1 °F 57.0 °F 61% 30.20 in 10.0 mi SSE 12.7 mph 21.9 mph N/A   Clear
3:56 PM 69.1 °F 57.9 °F 68% 30.19 in 10.0 mi SSE 15.0 mph 20.7 mph N/A   Clear
4:56 PM 68.0 °F 55.9 °F 65% 30.18 in 10.0 mi South 15.0 mph 18.4 mph N/A   Clear
5:56 PM 66.0 °F 55.9 °F 70% 30.19 in 10.0 mi South 12.7 mph - N/A   Clear
6:56 PM 62.1 °F 55.9 °F 80% 30.18 in 10.0 mi South 5.8 mph - N/A   Clear
7:56 PM 60.1 °F 55.9 °F 86% 30.17 in 10.0 mi SE 4.6 mph - N/A   Clear
8:56 PM 57.0 °F 55.9 °F 96% 30.17 in 9.0 mi Calm Calm - N/A   Clear
9:37 PM 55.4 °F 53.6 °F 94% 30.11 in 1.5 mi Calm Calm - N/A   Clear
9:40 PM 53.6 °F 53.6 °F 100% 30.11 in 0.8 mi Calm Calm - N/A   Clear
9:50 PM 53.6 °F 51.8 °F 94% 30.11 in 1.2 mi Calm Calm - N/A   Clear
9:56 PM 53.1 °F 51.1 °F 93% 30.18 in 8.0 mi Calm Calm - N/A   Clear
10:02 PM 53.6 °F 53.6 °F 100% 30.11 in 1.2 mi Calm Calm - N/A   Clear
10:04 PM 53.6 °F 53.6 °F 100% 30.11 in 0.5 mi Calm Calm - N/A Fog Fog
10:28 PM 53.6 °F 51.8 °F 94% 30.11 in 0.5 mi Calm Calm - N/A Fog Fog
10:32 PM 51.8 °F 51.8 °F 100% 30.11 in 1.0 mi Calm Calm - N/A   Mist
10:35 PM 51.8 °F 51.8 °F 100% 30.11 in 2.0 mi NW 3.5 mph - N/A   Scattered Clouds
10:38 PM 51.8 °F 51.8 °F 100% 30.11 in 4.0 mi Calm Calm - N/A   Mostly Cloudy
10:40 PM 51.8 °F 51.8 °F 100% 30.11 in 1.0 mi Calm Calm - N/A   Mostly Cloudy
10:42 PM 51.8 °F 51.8 °F 100% 30.11 in 0.5 mi NW 3.5 mph - N/A Fog Fog
10:56 PM 53.1 °F 52.0 °F 96% 30.17 in 0.2 mi Calm Calm - N/A Fog Fog
11:05 PM 51.8 °F 51.8 °F 100% 30.11 in 0.8 mi Calm Calm - N/A   Mostly Cloudy
11:07 PM 51.8 °F 51.8 °F 100% 30.11 in 2.0 mi Calm Calm - N/A   Scattered Clouds
11:19 PM 53.6 °F 51.8 °F 94% 30.10 in 7.0 mi South 3.5 mph - N/A   Partly Cloudy
11:56 PM 54.0 °F 52.0 °F 93% 30.16 in 10.0 mi Calm Calm - N/A   Clear